Hourly Data Report for October 24, 2013

All times are specified in Local Standard Time (LST). Add 1 hour to adjust for Daylight Saving Time where and when it is observed.

GRISE FIORD CLIMATE
NUNAVUT

76°25'22.040" N
82°54'08.020" W
44.50 m
2402351
71971
NGC

Download Data

Hourly Data (October 2013)
Hourly Data Report for October 24, 2013
Temp Definition
°C
Dew Point Temp Definition
°C
Rel Hum Definition
%
Wind Dir Definition
10's deg

Wind Spd Definition
km/h
Visibility Definition
km
Stn Press Definition
kPa
Hmdx Definition


Wind Chill Definition


Weather Definition


TIME
00:00 -7.8 -9.4 88 14 4   100.70   -10 LegendNANA
01:00 -7.9 -9.6 88 2 4   100.68   -10 LegendNANA
02:00 -7.6 -9.5 86 4 4   100.64   -10 LegendNANA
03:00 -8.0 -9.4 90 7 2   100.63   -9 LegendNANA
04:00 -8.0 -9.4 90 4 2   100.59   -9 LegendNANA
05:00 -7.8 -9.5 88 15 2   100.57   -9 LegendNANA
06:00 -8.2 -9.5 90 4 2   100.54   -9 LegendNANA
07:00 -8.3 -9.9 88 32 4   100.50   -10 LegendNANA
08:00 -7.8 -9.5 88   0   100.47     LegendNANA
09:00 -7.7 -9.2 89 4 2   100.44   -9 LegendNANA
10:00 -8.1 -9.5 90   0   100.40     LegendNANA
11:00 -7.7 -9.0 90 9 2   100.35   -9 LegendNANA
12:00 -7.8 -9.2 90 3 4   100.33   -10 LegendNANA
13:00 -7.5 -8.2 95 9 2   100.31   -9 LegendNANA
14:00 -7.6 -8.8 91 3 6   100.31   -11 LegendNANA
15:00 -7.6 -8.2 95 14 2   100.29   -9 LegendNANA
16:00 -8.5 -9.2 95 12 2   100.27   -10 LegendNANA
17:00 -8.3 -9.2 93 8 2   100.24   -9 LegendNANA
18:00 -8.2 -9.4 91 4 2   100.21   -9 LegendNANA
19:00 -8.5 -9.1 95 4 4   100.17   -11 LegendNANA
20:00 -8.7 -9.8 92   0   100.13     LegendNANA
21:00 -8.5 -9.4 93 25 4   100.10   -11 LegendNANA
22:00 -8.7 -10.0 90 5 4   100.05   -11 LegendNANA
23:00 -8.8 -9.8 92 5 2   100.01   -10 LegendNANA

Notes on Data Quality.

Legend

  • E = Estimated
  • M = Missing
  • NA = Not Available
  • ‡ = Partner data that is not subject to review by the National Climate Archives
Date modified: